SCP
0 0 0 0 0 0 0 0 0 0 0 0 0 0 0 0 0 0 0 0 0 0 0 0 0 0 0 0 0 0 0 0 0 0 0 0 0 0 0 0 0 0 0 0
0 0 0 0 0 0 0 0 0 0 0 0 0 0 0 0 0 0 0 0 0 0 0 0 0 0 0 0 0 0 0 0 0 0 0 0 0 0 0 0 0 0 0 0
0 0 0 0 0 0 0 0 0 0 0 0 0 0 0 0 0 0 0 0 0 0 0 0 0 0 0 0 0 0 0 0 0 0 0 0 0 0 0 0 0 0 0 0
0 0 0 0 0 0 0 0 0 0 0 0 0 0 0 0 0 0 0 0 0 0 0 0 0 0 0 0 0 0 0 0 0 0 0 0 0 0 0 0 0 0 0 0
0 0 0 0 0 0 0 0 0 0 0 0 0 0 0 0 0 0 0 0 0 0 0 0 0 0 0 0 0 0 0 0 0 0 0 0 0 0 0 0 0 0 0 0
0 0 0 0 0 0 0 0 0 0 0 0 0 0 0 0 0 0 0 0 0 0 0 0 0 0 0 0 0 0 0 0 0 0 0 0 0 0 0 0 0 0 0 0
0 0 0 0 0 0 0 0 0 0 0 0 0 0 0 0 0 0 0 0 0 0 0 0 0 0 0 0 0 0 0 0 0 0 0 0 0 0 0 0 0 0 0 0
0 0 0 0 0 0 0 0 0 0 0 0 0 0 0 0 0 0 0 0 0 0 0 0 0 0 0 0 0 0 0 0 0 0 0 0 0 0 0 0 0 0 0 0
0 0 0 0 0 0 0 0 0 0 0 0 0 0 0 0 0 0 0 0 0 0 0 0 0 0 0 0 0 0 0 0 0 0 0 0 0 0 0 0 0 0 0 0
0 0 0 0 0 0 0 0 0 0 0 0 0 0 0 0 0 0 0 0 0 0 0 0 0 0 0 0 0 0 0 0 0 0 0 0 0 0 0 0 0 0 0 0
0 0 0 0 0 0 0 0 0 0 0 0 0 0 0 0 0 0 0 0 0 0 0 0 0 0 0 0 0 0 0 0 0 0 0 0 0 0 0 0 0 0 0 0
0 0 0 0 0 0 0 0 0 0 0 0 0 0 0 0 0 0 0 0 0 0 0 0 0 0 0 0 0 0 0 0 0 0 0 0 0 0 0 0 0 0 0 0
0 0 0 0 0 0 0 0 0 0 0 0 0 0 0 0 0 0 0 0 0 0 0 0 0 0 0 0 0 0 0 0 0 0 0 0 0 0 0 0 0 0 0 0
0 0 0 0 0 0 0 0 0 0 0 0 0 0 0 0 0 0 0 0 0 0 0 0 0 0 0 0 0 0 0 0 0 0 0 0 0 0 0 0 0 0 0 0
0 0 0 0 0 0 0 0 0 0 0 0 0 0 0 0 0 0 0 0 0 0 0 0 0 0 0 0 0 0 0 0 0 0 0 0 0 0 0 0 0 0 0 0
0 0 0 0 0 0 0 0 0 0 0 0 0 0 0 0 0 0 0 0 0 0 0 0 0 0 0 0 0 0 0 0 0 0 0 0 0 0 0 0 0 0 0 0
0 0 0 0 0 0 0 0 0 0 0 0 0 0 0 0 0 0 0 0 0 0 0 0 0 0 0 0 0 0 0 0 0 0 0 0 0 0 0 0 0 0 0 0
0 0 0 0 0 0 0 0 0 0 0 0 0 0 0 0 0 0 0 0 0 0 0 0 0 0 0 0 0 0 0 0 0 0 0 0 0 0 0 0 0 0 0 0
0 0 0 0 0 0 0 0 0 0 0 0 0 0 0 0 0 0 0 0 0 0 0 0 0 0 0 0 0 0 0 0 0 0 0 0 0 0 0 0 0 0 0 0
0 0 0 0 0 0 0 0 0 0 0 0 0 0 0 0 0 0 0 0 0 0 0 0 0 0 0 0 0 0 0 0 0 0 0 0 0 0 0 0 0 0 0 0
0 0 0 0 0 0 0 0 0 0 0 0 0 0 0 0 0 0 0 0 0 0 0 0 0 0 0 0 0 0 0 0 0 0 0 0 0 0 0 0 0 0 0 0
0 0 0 0 0 0 0 0 0 0 0 0 0 0 0 0 0 0 0 0 0 0 0 0 0 0 0 0 0 0 0 0 0 0 0 0 0 0 0 0 0 0 0 0
0 0 0 0 0 0 0 0 0 0 0 0 0 0 0 0 0 0 0 0 0 0 0 0 0 0 0 0 0 0 0 0 0 0 0 0 0 0 0 0 0 0 0 0
0 0 0 0 0 0 0 0 0 0 0 0 0 0 0 0 0 0 0 0 0 0 0 0 0 0 0 0 0 0 0 0 0 0 0 0 0 0 0 0 0 0 0 0
0 0 0 0 0 0 0 0 0 0 0 0 0 0 0 0 0 0 0 0 0 0 0 0 0 0 0 0 0 0 0 0 0 0 0 0 0 0 0 0 0 0 0 0
0 0 0 0 0 0 0 0 0 0 0 0 0 0 0 0 0 0 0 0 0 0 0 0 0 0 0 0 0 0 0 0 0 0 0 0 0 0 0 0 0 0 0 0
Wind_Speed
4 2 4 5 7 6 4 4 4 2 1 3 6 7 6 5 5 5 5 5 5 4 4 4 4 3 3 4 4 3 3 3 2 1 1 1 1 1 2 2 2 2 2 2
3 5 5 3 2 3 5 5 5 2 1 2 4 7 6 7 7 6 6 5 5 5 4 4 4 3 3 3 3 3 3 3 2 1 1 1 1 1 1 1 2 2 2 2
5 1 1 2 2 4 6 6 5 3 1 3 3 7 7 6 6 5 5 5 5 5 5 4 3 3 3 3 2 2 2 2 2 2 1 1 2 1 1 1 1 1 1 1
3 1 1 2 3 3 5 2 2 1 2 4 4 6 4 5 5 6 6 5 5 4 4 4 3 3 2 2 2 2 2 2 2 2 2 2 1 1 1 1 0 1 1 1
2 0 1 3 3 3 1 2 1 2 3 4 4 5 6 4 5 6 6 6 5 4 4 4 3 3 2 2 2 2 2 2 2 2 2 1 1 1 1 1 1 0 1 1
2 1 1 1 1 1 1 1 2 2 1 5 7 7 6 4 6 6 6 6 5 4 4 4 3 3 2 2 2 2 2 2 2 2 1 1 1 1 2 1 1 0 0 0
3 3 1 0 1 0 1 1 0 2 3 7 4 6 5 1 1 5 7 6 5 5 4 4 3 3 3 2 2 2 2 1 2 2 1 1 1 1 2 2 1 1 0 0
3 3 3 1 2 2 3 3 4 4 4 2 2 5 4 1 2 4 5 5 4 4 4 3 3 3 3 3 2 2 2 1 1 2 1 1 1 1 1 1 1 1 1 1
3 2 2 1 2 1 3 4 2 2 3 4 6 4 3 0 1 2 3 4 4 3 3 3 3 3 3 3 3 2 2 1 1 1 1 1 1 1 1 1 1 1 1 1
2 2 1 1 1 2 2 1 1 3 4 6 6 5 4 3 3 3 3 4 3 3 3 3 3 3 3 3 2 2 2 2 1 1 1 1 1 1 1 1 1 1 1 0
2 1 1 1 4 4 2 2 3 3 3 3 4 4 1 2 4 4 4 3 3 3 3 2 2 2 2 2 2 2 2 2 1 1 1 1 1 1 1 1 2 1 1 1
1 1 3 4 1 2 1 3 4 4 5 4 4 5 2 3 3 3 3 3 3 2 2 2 2 2 2 2 1 1 1 1 2 2 1 2 2 2 2 2 2 1 1 1
1 1 2 2 1 1 2 2 3 2 2 4 5 6 1 3 2 1 1 2 2 2 2 2 2 1 1 1 1 1 1 1 1 1 1 2 2 2 3 3 2 2 2 2
1 2 5 6 3 1 3 3 3 3 4 5 7 7 5 3 2 2 0 1 2 1 1 2 1 1 1 1 1 1 1 1 1 1 2 2 3 3 3 2 2 2 2 2
0 3 4 6 6 4 5 5 6 8 8 8 8 8 7 4 3 2 1 1 1 1 1 1 1 1 1 1 1 1 1 1 1 2 2 3 3 2 2 2 3 2 2 3
0 2 3 6 6 5 7 7 8 9 9 10 10 11 6 4 3 3 2 1 1 1 2 1 1 1 1 1 1 1 1 1 1 2 2 2 2 2 2 2 2 2 2 2
2 2 2 5 2 4 8 7 8 6 6 6 10 9 4 4 4 4 2 1 2 2 2 2 2 2 1 1 1 2 2 1 1 2 2 2 2 2 2 2 2 2 2 3
3 3 3 3 2 8 6 0 3 5 5 5 5 4 3 3 4 3 1 1 1 2 2 2 1 1 1 0 0 1 1 1 1 2 2 2 2 2 2 2 2 2 2 2
3 4 3 3 5 8 3 1 1 2 5 2 3 4 4 3 3 2 3 3 2 2 2 1 1 1 1 1 0 1 0 0 1 2 2 2 2 2 2 2 2 2 2 3
1 2 3 4 5 6 3 1 1 1 4 2 1 2 2 3 2 3 3 4 4 3 2 2 2 1 1 1 1 1 0 1 2 2 2 2 2 2 2 3 3 2 3 3
1 2 5 6 6 6 2 1 1 2 5 3 2 1 1 2 3 3 3 3 3 3 2 2 1 1 1 1 1 0 1 2 2 2 2 2 2 2 3 3 3 3 3 3
5 4 4 3 5 7 0 2 3 3 2 2 2 2 1 2 2 2 2 2 2 2 2 2 1 1 1 1 1 1 2 2 1 1 2 2 2 3 2 3 3 3 3 3
4 4 3 5 5 1 3 3 2 0 2 3 2 2 2 2 3 2 2 2 2 2 2 1 1 1 1 1 0 1 2 2 1 1 2 3 3 3 3 3 3 3 3 3
2 0 2 4 4 2 1 0 1 1 2 3 2 2 2 3 3 2 2 2 2 2 2 1 1 1 2 1 1 1 2 2 1 2 3 3 3 3 3 3 3 3 3 3
2 1 2 5 4 3 2 1 1 2 2 2 2 2 2 2 2 2 2 2 2 2 2 1 1 2 3 2 2 2 2 1 2 3 3 3 3 3 3 3 3 4 4 5
2 3 4 5 2 2 3 2 2 1 2 3 2 3 2 2 2 2 2 2 2 2 2 2 2 3 3 2 2 2 2 2 2 3 3 2 2 3 3 3 4 8 9 11
Wind_Direction
177 194 212 219 222 252 287 274 267 268 195 212 223 229 218 205 198 199 196 182 164 148 121 108 102 90 94 91 90 88 83 80 81 94 108 111 107 87 78 74 73 71 60 57
185 226 240 260 262 271 276 271 268 264 197 228 248 251 234 212 212 203 190 174 157 143 130 122 113 99 98 101 100 101 96 95 93 80 84 111 117 119 118 90 81 74 71 62
215 238 258 249 247 244 255 247 254 257 269 237 274 274 230 211 195 185 175 164 155 153 150 138 125 112 101 112 123 122 109 103 95 85 76 95 89 71 71 69 80 87 85 77
240 272 267 229 245 247 256 279 273 267 265 245 197 276 236 193 196 188 177 164 159 149 139 138 133 129 126 128 117 113 114 107 104 107 99 122 129 143 150 144 117 97 105 81
236 104 255 239 260 274 258 10 323 279 257 281 232 250 266 184 207 204 185 168 156 147 142 143 143 144 128 120 123 120 117 112 109 110 108 122 137 121 108 101 105 105 103 104
249 329 332 282 351 7 79 358 302 254 225 258 224 215 260 208 211 184 167 157 153 145 141 143 137 126 120 112 114 118 122 112 112 117 117 110 125 132 126 128 147 158 130 153
233 199 180 45 105 157 209 144 253 237 218 242 215 211 244 228 155 152 156 153 148 150 153 153 148 148 149 142 135 133 132 130 132 135 141 143 135 156 173 182 183 180 196 232
257 245 170 179 205 195 215 202 200 225 238 259 255 234 238 150 77 100 128 139 147 159 159 162 165 170 169 163 153 150 157 162 160 164 178 161 139 161 203 210 193 197 213 226
260 261 75 51 331 272 207 223 258 271 286 275 245 231 262 183 148 136 140 146 166 171 167 167 169 173 170 171 169 169 180 189 189 186 185 175 163 171 206 223 214 206 205 237
317 286 218 80 335 299 288 295 172 200 231 250 255 229 238 201 213 195 178 181 185 184 180 172 172 167 161 162 160 170 189 203 210 197 205 226 185 193 207 205 223 237 223 198
332 232 232 182 210 219 201 236 226 237 237 235 266 259 348 173 179 187 195 187 190 195 184 177 167 146 143 150 167 181 189 193 209 220 221 224 219 209 208 216 223 225 239 218
317 243 250 233 226 2 234 214 189 206 245 231 250 262 26 69 128 153 182 186 182 178 175 178 167 150 146 163 177 186 194 206 223 228 230 230 229 219 215 223 223 221 232 231
22 164 285 289 286 358 287 268 244 247 267 241 239 258 17 48 41 58 160 168 166 169 168 163 160 170 172 171 173 179 203 223 238 241 234 233 231 226 224 221 218 221 227 234
45 220 214 238 273 204 242 241 218 201 225 246 240 260 290 311 310 312 178 157 161 175 184 186 184 191 179 168 173 189 242 242 244 241 244 241 236 230 229 221 220 226 229 230
79 250 253 269 281 267 259 246 213 216 227 237 257 267 278 275 274 283 270 190 173 188 225 224 223 223 210 182 185 206 241 245 251 247 251 250 242 234 230 226 228 230 236 245
191 260 284 273 260 263 269 254 235 238 242 253 269 274 285 297 318 317 305 207 226 257 254 264 267 263 242 213 208 217 232 243 239 248 259 264 253 246 240 233 228 230 235 240
200 212 247 265 277 296 268 234 215 222 225 221 243 258 298 310 303 289 278 249 251 271 288 281 274 249 246 231 206 214 227 229 232 248 261 264 254 251 248 243 237 236 238 242
194 219 241 270 297 251 245 229 197 216 237 230 249 279 307 302 309 305 308 326 305 301 302 296 301 313 329 303 222 194 208 212 237 255 261 261 254 249 245 245 248 247 247 245
216 206 231 235 250 264 257 245 174 215 266 247 256 295 326 344 334 321 10 16 347 334 333 338 13 6 17 2 1 84 54 272 269 271 271 266 254 253 254 258 258 256 255 257
293 222 229 235 244 250 251 286 338 94 273 315 292 283 323 8 321 289 353 7 3 8 18 20 35 39 27 352 44 84 302 292 278 280 283 281 267 261 258 258 260 263 261 262
184 220 224 235 246 259 266 284 93 171 261 341 356 310 316 247 246 295 347 358 4 14 24 27 37 24 349 4 55 40 307 280 283 295 297 295 286 271 261 261 258 255 259 262
190 199 210 216 233 252 152 112 184 232 330 350 340 326 293 280 307 325 339 346 359 2 9 19 11 344 347 6 35 321 291 287 303 313 308 300 293 280 277 271 269 262 254 258
208 206 209 209 224 250 150 176 212 24 318 318 318 311 294 285 289 299 315 330 339 344 344 352 347 330 334 336 305 271 289 306 313 308 298 293 291 284 276 268 267 265 256 254
231 136 246 264 266 275 249 265 353 356 307 310 308 302 293 274 283 294 299 310 316 318 324 336 344 317 306 311 305 272 292 307 303 288 288 287 283 278 273 269 264 261 255 255
252 185 252 264 284 317 295 296 320 316 324 317 317 302 284 275 282 275 278 288 295 310 318 318 296 284 288 296 293 293 298 294 286 285 285 287 282 277 275 270 261 264 250 254
216 205 217 245 252 250 278 313 322 306 297 292 300 309 307 277 270 280 280 283 296 308 319 317 306 299 295 297 291 291 284 265 265 282 286 284 282 278 277 279 285 278 273 276